Torna al catalogo

STARLINK-31261

AttivoComunicazioniVLEO
NORAD 59084·PAYLOAD·🇺🇸 United States

Lanciato Feb 29, 2024 da Cape Canaveral Space Force Station

Loading…

Prossimi Passaggi (prossime 24 ore)

TLE

AggiornatoSource: CelesTrak SupGP

Epoca: Sep 14, 2026, 20:56 UTC

1 59084C 24041L   26257.87270833 -.00028246  00000+0 -10234-2 0  2579
2 59084  43.0019 322.4583 0001595 275.0392  51.8561 15.27582046    17

Traccia STARLINK-31261 in tempo reale con AllMySat

Download on the App Store